Probability
0 0 0 0 0 0 0 0 0 0 0 0 0 0 0 0 0 0 0 0 0 6 10 10 32 71 84 87 94 87 90 87 68 81 58 39 32 16 3 6 0 0 0
0 0 0 0 0 0 0 0 0 0 0 0 0 0 0 0 0 0 0 0 0 0 0 10 10 26 77 87 100 100 100 97 81 71 94 77 65 39 35 29 3 3 13
0 0 0 0 0 0 0 0 0 0 0 0 0 0 0 0 0 0 0 0 0 0 0 0 6 23 55 84 94 94 100 58 84 71 77 97 77 48 55 48 6 48 3
0 0 0 0 0 0 0 0 0 0 0 0 0 0 0 0 0 0 0 0 0 0 0 0 0 0 10 39 61 81 81 77 74 74 77 81 81 58 58 58 35 68 52
0 0 0 0 0 0 0 0 0 0 0 0 0 0 0 0 0 0 0 0 0 0 0 0 0 0 0 0 0 35 65 81 68 68 71 71 74 61 58 55 52 58 74
0 0 0 0 0 0 0 0 0 0 0 0 0 0 0 0 0 0 0 0 0 0 0 0 0 0 0 0 0 0 0 0 61 74 65 71 45 32 29 6 19 35 35
0 0 0 0 0 0 0 0 0 0 0 0 0 0 0 0 0 0 0 0 0 0 0 0 0 0 0 0 0 0 0 0 0 16 26 13 0 3 0 0 3 10 10
0 0 0 0 0 0 0 0 0 0 0 0 0 0 0 0 0 0 0 0 0 0 0 0 0 0 0 0 0 0 0 0 0 0 0 0 0 0 0 0 0 0 0
0 0 0 0 0 0 0 0 0 0 0 0 0 0 0 0 0 0 0 0 0 0 0 0 0 0 0 0 0 0 0 0 0 0 0 0 0 0 0 0 0 0 0
0 0 0 0 0 0 0 0 0 0 0 0 0 0 0 0 0 0 0 0 0 0 0 0 0 0 0 0 0 0 0 0 0 0 0 0 0 0 0 0 0 0 0
0 0 0 0 0 0 0 0 0 0 0 0 0 0 0 0 0 0 0 0 0 0 0 0 0 0 0 0 0 0 0 0 0 0 0 0 0 0 0 0 0 0 0
0 0 0 0 0 0 0 0 0 0 0 0 0 0 0 0 0 0 0 0 0 0 0 0 0 0 0 0 0 0 0 0 0 0 0 0 0 0 0 0 0 0 0
0 0 0 0 0 0 0 0 0 0 0 0 0 0 0 0 0 0 0 0 0 0 0 0 0 0 0 0 0 0 0 0 0 0 0 0 0 0 0 0 0 0 0
0 0 0 0 0 0 0 0 0 0 0 0 0 0 0 0 0 0 0 0 0 0 0 0 0 0 0 0 0 0 0 0 0 0 0 0 0 0 0 0 0 0 0
0 0 0 0 0 0 0 0 0 0 0 0 0 0 0 0 0 0 0 0 0 0 0 0 0 0 0 0 0 0 0 0 0 0 0 0 0 0 0 0 0 0 0
0 0 0 0 0 0 0 0 0 0 0 0 0 0 0 0 0 0 0 0 0 0 0 0 0 0 0 0 0 0 0 0 0 0 0 0 0 0 0 0 0 0 0
0 0 0 0 0 0 0 0 0 0 0 0 0 0 0 0 0 0 0 0 0 0 0 0 0 0 0 0 0 0 0 0 0 0 0 0 0 0 0 0 0 0 0
0 0 0 0 0 0 0 0 0 0 0 0 0 0 0 0 0 0 0 0 0 0 0 0 0 0 0 0 0 0 0 0 0 0 0 0 0 0 0 0 0 0 0
0 0 0 0 0 0 0 0 0 0 0 0 0 0 0 0 0 0 0 0 0 0 0 0 0 0 0 0 0 0 0 0 0 0 0 0 0 0 0 0 0 0 0
0 0 0 0 0 0 0 0 0 0 0 0 0 0 0 0 0 0 0 0 0 0 0 0 0 0 0 0 0 0 0 0 0 0 0 0 0 0 0 0 0 0 0
0 0 0 0 0 0 0 0 0 0 0 0 0 0 0 0 0 0 0 0 0 0 0 0 0 0 0 0 0 0 0 0 0 0 0 0 0 0 0 0 0 0 0
0 0 0 0 0 0 0 0 0 0 0 0 0 0 0 0 0 0 0 0 0 0 0 0 0 0 0 0 0 0 0 0 0 0 0 0 0 0 0 0 0 0 0
0 0 0 0 0 0 0 0 0 0 0 0 0 0 0 0 0 0 0 0 0 0 0 0 0 0 0 0 0 0 0 0 0 0 0 0 0 0 0 0 0 0 0
0 0 0 0 0 0 0 0 0 0 0 0 0 0 0 0 0 0 0 0 0 0 0 0 0 0 0 0 0 0 0 0 0 0 0 0 0 0 0 0 0 0 0
0 0 0 0 0 0 0 0 0 0 0 0 0 0 0 0 0 0 0 0 0 0 0 0 0 0 0 0 0 0 0 0 0 0 0 0 0 0 0 0 0 0 0
0 0 0 0 0 0 0 0 0 0 0 0 0 0 0 0 0 0 0 0 0 0 0 0 0 0 0 0 0 0 0 0 0 0 0 0 0 0 0 0 0 0 0
Height
5803 5802 5801 5800 5800 5799 5799 5799 5799 5799 5800 5801 5801 5802 5802 5803 5803 5803 5803 5804 5804 5804 5804 5804 5803 5802 5802 5801 5801 5801 5801 5802 5802 5802 5802 5801 5802 5801 5801 5801 5800 5800 5799
5795 5794 5793 5793 5792 5792 5792 5792 5792 5792 5793 5793 5794 5794 5794 5794 5795 5795 5795 5796 5796 5796 5796 5796 5795 5795 5794 5793 5793 5793 5793 5794 5795 5796 5796 5795 5795 5795 5796 5796 5796 5795 5795
5786 5786 5786 5785 5785 5785 5785 5785 5785 5785 5785 5785 5785 5786 5786 5786 5786 5787 5787 5787 5788 5788 5788 5788 5788 5787 5786 5785 5785 5785 5786 5787 5788 5789 5789 5789 5789 5789 5790 5791 5791 5791 5790
5778 5778 5778 5778 5778 5778 5777 5777 5777 5777 5777 5777 5777 5777 5777 5777 5777 5778 5778 5778 5779 5779 5780 5779 5779 5779 5778 5777 5777 5777 5778 5779 5780 5781 5782 5782 5783 5783 5784 5785 5785 5785 5785
5770 5770 5770 5770 5769 5769 5769 5769 5769 5769 5768 5768 5768 5768 5768 5768 5768 5768 5768 5769 5769 5770 5770 5770 5770 5770 5770 5769 5769 5769 5770 5771 5773 5774 5775 5775 5776 5777 5778 5779 5779 5780 5780
5760 5760 5760 5760 5759 5759 5759 5759 5759 5759 5759 5758 5758 5758 5757 5757 5757 5757 5758 5758 5759 5759 5760 5761 5761 5761 5761 5761 5761 5762 5762 5764 5765 5766 5767 5768 5769 5770 5771 5772 5773 5774 5775
5750 5749 5749 5748 5748 5748 5747 5747 5747 5747 5747 5747 5747 5746 5746 5746 5746 5747 5747 5747 5748 5749 5750 5751 5751 5752 5752 5753 5753 5754 5755 5756 5757 5759 5759 5761 5762 5763 5765 5766 5767 5768 5769
5739 5739 5738 5737 5736 5735 5735 5735 5734 5734 5734 5734 5734 5734 5734 5734 5734 5735 5736 5736 5737 5738 5739 5740 5741 5742 5743 5743 5744 5745 5746 5748 5749 5750 5752 5753 5755 5756 5758 5759 5760 5761 5763
5729 5728 5727 5726 5725 5724 5723 5722 5722 5722 5722 5722 5722 5722 5722 5722 5722 5723 5724 5725 5726 5727 5728 5730 5731 5732 5733 5734 5735 5736 5737 5739 5740 5742 5743 5745 5747 5748 5750 5751 5753 5754 5755
5719 5718 5717 5716 5715 5713 5712 5711 5710 5710 5710 5710 5710 5710 5710 5710 5711 5712 5713 5714 5715 5716 5718 5719 5721 5722 5724 5725 5726 5727 5728 5729 5731 5733 5735 5736 5738 5740 5741 5743 5745 5747 5748
5711 5709 5708 5707 5705 5704 5702 5701 5700 5700 5700 5700 5700 5701 5700 5700 5701 5701 5702 5703 5704 5705 5707 5708 5710 5711 5713 5715 5716 5717 5719 5720 5722 5723 5725 5727 5729 5731 5733 5735 5737 5739 5741
5703 5702 5700 5699 5698 5696 5695 5694 5693 5693 5693 5693 5693 5692 5692 5692 5692 5692 5692 5693 5693 5694 5695 5697 5698 5700 5702 5704 5705 5707 5709 5711 5712 5714 5716 5718 5720 5722 5724 5726 5728 5730 5732
5696 5695 5694 5693 5692 5691 5690 5689 5688 5687 5687 5686 5686 5686 5685 5684 5684 5684 5684 5684 5684 5684 5685 5686 5687 5688 5690 5692 5694 5696 5698 5700 5702 5704 5706 5708 5710 5712 5714 5717 5719 5721 5723
5691 5690 5689 5688 5686 5685 5684 5683 5682 5682 5681 5680 5679 5679 5678 5678 5677 5677 5676 5676 5676 5676 5676 5676 5677 5678 5679 5680 5682 5684 5686 5688 5690 5693 5695 5698 5700 5702 5705 5707 5709 5711 5714
5686 5684 5683 5682 5681 5679 5678 5677 5676 5675 5674 5673 5672 5671 5670 5670 5669 5669 5669 5669 5668 5668 5668 5669 5669 5669 5670 5670 5671 5673 5674 5676 5678 5681 5684 5686 5689 5691 5694 5696 5699 5701 5703
5680 5679 5677 5676 5674 5672 5671 5670 5668 5667 5666 5665 5664 5663 5662 5661 5660 5660 5660 5660 5660 5660 5660 5661 5661 5661 5662 5663 5663 5664 5665 5666 5668 5670 5673 5675 5677 5680 5682 5685 5687 5690 5692
5675 5673 5671 5669 5667 5665 5663 5662 5660 5659 5657 5656 5655 5653 5652 5651 5650 5650 5650 5650 5650 5650 5650 5651 5651 5652 5653 5654 5655 5656 5657 5658 5660 5661 5663 5665 5667 5669 5672 5674 5676 5679 5681
5669 5667 5665 5663 5661 5659 5656 5654 5652 5650 5648 5646 5644 5643 5641 5640 5639 5638 5638 5637 5637 5638 5638 5639 5640 5641 5642 5643 5645 5646 5648 5649 5651 5653 5654 5656 5658 5660 5662 5664 5666 5669 5671
5664 5662 5659 5657 5654 5652 5649 5646 5644 5641 5638 5636 5634 5632 5630 5628 5627 5626 5625 5624 5624 5624 5624 5625 5626 5628 5629 5630 5632 5634 5636 5637 5639 5642 5644 5646 5648 5650 5652 5655 5657 5659 5661
5658 5656 5653 5651 5648 5645 5642 5639 5636 5633 5630 5626 5624 5621 5618 5616 5614 5612 5611 5610 5609 5609 5609 5610 5610 5612 5613 5615 5617 5619 5621 5623 5625 5628 5630 5633 5636 5638 5641 5643 5645 5648 5650
5653 5650 5647 5644 5641 5638 5635 5632 5628 5625 5621 5618 5615 5612 5609 5605 5603 5600 5598 5596 5595 5594 5594 5594 5594 5595 5597 5598 5600 5602 5604 5606 5609 5612 5615 5618 5621 5624 5627 5629 5632 5634 5637
5647 5645 5641 5638 5635 5632 5628 5625 5621 5618 5614 5610 5606 5602 5599 5595 5592 5588 5585 5583 5581 5580 5579 5579 5579 5579 5580 5582 5584 5585 5586 5588 5592 5596 5599 5601 5604 5608 5610 5613 5616 5619 5622
5642 5639 5636 5632 5629 5625 5622 5618 5614 5610 5606 5601 5596 5591 5587 5583 5579 5576 5572 5569 5567 5565 5564 5563 5563 5563 5564 5565 5566 5567 5569 5572 5576 5578 5581 5583 5587 5590 5593 5596 5599 5602 5605
5636 5633 5630 5627 5623 5620 5615 5611 5607 5602 5597 5591 5586 5581 5576 5571 5567 5563 5560 5556 5554 5551 5550 5548 5548 5547 5548 5548 5549 5551 5554 5557 5558 5560 5564 5566 5569 5571 5575 5578 5581 5584 5587
5630 5627 5624 5621 5617 5613 5609 5604 5599 5593 5587 5582 5576 5570 5565 5560 5556 5552 5548 5545 5542 5539 5537 5535 5533 5533 5532 5533 5534 5536 5538 5539 5541 5544 5546 5548 5551 5554 5556 5559 5562 5565 5568
5624 5621 5618 5614 5611 5606 5601 5596 5591 5585 5579 5573 5567 5561 5556 5551 5547 5543 5539 5535 5532 5529 5526 5524 5521 5520 5519 5519 5520 5521 5522 5524 5525 5527 5529 5531 5533 5535 5538 5541 5543 5546 5549
Wind_Speed
35 34 33 33 33 32 31 30 29 28 28 28 27 28 28 29 29 30 31 31 32 32 31 31 31 31 30 30 31 30 30 29 28 27 25 23 22 21 19 18 17 16 16
35 34 32 31 30 29 28 28 28 27 27 28 28 29 30 30 30 31 31 31 31 31 31 30 30 31 31 31 30 30 30 30 29 28 26 25 23 21 19 18 17 16 16
32 32 30 29 29 28 27 27 28 28 29 29 30 30 31 31 32 32 33 33 33 33 32 32 32 31 31 31 30 30 30 31 30 29 29 27 25 23 21 19 18 17 15
31 31 31 31 30 30 30 30 30 31 31 31 32 32 33 33 34 34 35 35 35 35 34 33 32 32 32 31 30 30 31 31 32 31 31 29 26 24 22 21 19 18 17
33 34 34 34 35 35 36 35 35 35 35 36 36 36 36 36 36 36 36 36 36 35 35 34 33 32 32 31 30 30 31 32 33 33 31 29 27 26 24 23 22 20 19
36 37 37 38 39 39 40 41 41 41 41 41 41 41 40 40 39 38 37 37 36 36 35 34 34 33 32 31 30 30 30 32 33 33 32 29 27 26 25 25 24 22 20
37 38 40 41 42 43 44 45 46 46 46 46 46 46 45 43 42 41 39 37 36 36 35 34 34 33 33 32 31 31 31 30 32 32 31 30 28 27 26 26 26 23 22
36 38 39 41 42 44 45 47 48 49 49 49 49 48 47 46 44 42 40 37 36 35 34 33 33 33 32 33 33 32 33 33 33 33 33 32 30 29 27 27 26 25 24
32 33 35 36 38 40 42 44 45 46 47 47 46 45 44 44 43 41 39 37 36 34 33 32 32 32 31 32 32 33 33 34 34 34 34 33 32 32 30 28 27 26 25
29 30 31 32 34 35 36 38 39 40 40 39 38 37 37 38 38 37 37 37 36 35 34 34 33 33 32 32 33 32 33 33 33 33 33 33 33 32 32 32 30 29 28
26 27 28 28 29 29 29 30 30 30 30 30 29 29 30 31 32 33 35 36 37 36 36 36 35 34 35 34 34 34 33 33 33 32 32 32 32 31 31 32 32 31 30
23 23 24 23 23 22 22 22 22 22 23 23 24 25 25 26 27 29 30 32 33 35 36 37 38 38 37 37 36 36 36 35 35 34 33 32 32 32 31 31 32 33 34
20 19 19 19 19 19 19 19 19 20 20 20 21 22 23 23 23 24 25 26 28 30 32 34 36 37 38 38 38 39 39 38 38 38 37 36 34 34 33 33 33 33 33
17 17 17 17 18 19 19 20 20 21 22 22 23 23 23 23 23 23 23 24 24 25 26 28 30 31 33 35 37 38 39 39 40 40 40 39 39 37 36 35 34 34 34
17 17 18 19 20 21 22 22 23 24 25 26 27 27 27 27 27 26 25 25 25 25 25 25 25 25 26 28 29 32 34 36 37 38 39 40 40 40 40 39 38 38 37
19 20 21 21 22 23 24 25 25 26 27 28 30 30 32 33 33 33 32 32 31 30 30 28 27 27 26 25 25 25 26 27 28 30 33 35 37 37 38 38 39 38 39
19 20 21 22 22 23 24 25 26 27 29 30 32 33 35 36 37 37 38 37 37 36 35 34 33 32 31 31 29 28 26 25 24 24 25 27 28 30 31 32 34 35 36
17 19 20 21 23 23 24 25 27 28 29 31 33 34 36 37 38 39 39 39 40 41 41 41 40 39 38 37 36 35 34 32 31 29 28 27 27 27 27 27 28 30 32
17 19 20 21 22 23 24 25 26 27 29 30 32 33 34 35 37 38 39 39 41 42 44 45 46 46 45 44 44 43 42 41 39 38 36 35 33 32 32 31 31 30 30
18 19 21 22 23 24 24 25 26 27 28 29 31 33 34 34 35 36 37 38 40 41 43 45 47 48 49 50 50 49 49 49 48 46 45 43 42 41 40 39 38 36 35
20 21 22 23 23 24 24 25 26 27 28 30 32 33 33 35 35 36 37 38 39 40 42 43 46 48 50 52 52 53 53 54 53 52 51 50 49 48 47 46 45 44 42
21 21 22 22 23 23 23 24 26 27 29 31 33 34 34 35 36 37 38 38 39 40 41 42 45 47 49 50 53 54 55 55 55 55 55 54 54 53 52 52 51 50 49
20 21 21 22 23 23 24 25 27 29 32 34 35 36 36 36 36 37 37 38 38 38 39 41 43 45 47 48 50 52 54 56 56 55 55 55 55 55 55 55 55 54 53
19 20 21 22 23 25 26 28 30 32 34 36 37 37 36 36 35 35 35 35 35 35 36 37 39 42 44 46 48 49 50 51 53 54 54 54 54 55 55 55 55 55 54
19 20 21 22 24 26 28 30 32 34 36 37 37 36 35 34 32 32 31 31 31 32 33 34 35 37 39 41 44 46 47 48 50 51 52 52 53 53 53 54 54 55 55
18 19 21 23 25 27 29 32 34 36 37 37 36 34 33 31 30 29 28 28 28 29 29 29 30 31 33 35 37 39 42 44 46 47 49 50 52 53 53 53 54 55 56
Wind_Direction
269 271 271 272 270 266 263 261 260 260 261 262 265 268 269 270 270 270 271 271 272 273 274 274 274 273 272 271 269 268 266 264 263 263 267 272 276 274 272 275 278 281 280
268 270 269 269 267 264 261 259 258 260 263 265 268 270 270 271 270 270 271 271 272 273 274 273 273 273 272 271 270 266 263 261 260 260 264 268 272 272 268 272 275 277 275
264 265 264 263 263 261 260 260 262 264 267 270 272 274 274 273 271 270 270 270 271 272 272 271 272 272 272 271 269 265 261 259 257 258 261 264 268 269 266 267 270 271 270
261 263 264 263 262 263 262 263 266 269 271 273 274 275 275 274 272 270 269 269 269 270 269 270 270 271 271 269 266 263 260 257 256 257 259 261 264 265 262 261 265 266 265
263 265 266 264 265 266 266 267 269 271 273 274 274 274 274 274 273 271 269 268 268 268 268 268 269 269 269 266 263 261 258 256 255 256 258 259 260 260 258 256 258 261 260
267 268 268 267 267 268 267 267 268 270 271 272 272 273 273 273 272 271 269 267 266 266 266 266 266 266 266 263 261 259 257 255 254 255 256 256 258 257 254 253 254 254 254
268 268 268 268 268 268 267 266 267 267 267 268 269 269 270 269 269 269 269 267 266 265 265 264 264 264 263 260 257 256 255 253 253 254 255 257 258 257 254 252 251 251 252
268 269 269 268 268 268 268 267 267 268 268 268 268 269 269 269 268 267 267 266 265 264 263 262 262 261 260 257 255 254 253 252 253 253 254 255 255 254 252 251 250 248 250
271 271 271 271 271 270 270 269 269 269 269 269 269 269 269 268 267 266 264 262 261 260 260 260 259 259 258 256 254 253 253 252 252 252 252 252 252 252 251 252 251 250 250
274 274 274 274 274 273 272 271 270 269 269 269 269 268 267 265 264 262 260 258 257 256 256 256 257 257 256 254 253 252 252 251 251 251 251 251 250 251 251 251 251 250 249
277 277 277 276 276 276 275 273 271 269 267 266 265 265 264 263 261 260 259 257 255 254 254 254 254 256 255 253 252 251 250 249 249 249 249 249 249 249 249 249 249 249 249
280 279 277 277 277 276 274 272 270 267 264 264 265 266 267 268 267 265 262 259 258 256 256 255 254 254 255 254 253 251 249 249 248 248 248 248 249 250 250 251 251 251 251
281 281 280 279 278 278 275 272 270 268 267 267 267 268 270 271 272 271 269 266 263 261 260 258 257 255 253 252 252 251 251 250 249 249 248 248 248 249 251 251 252 252 253
284 284 284 283 280 279 278 275 272 271 269 269 267 266 267 269 271 272 273 271 269 267 265 263 261 259 256 254 252 251 251 251 251 251 250 250 250 250 251 251 252 252 253
285 286 286 286 283 281 280 278 275 274 271 268 268 267 266 266 267 268 269 269 270 268 267 265 264 262 259 257 255 254 252 251 250 251 252 252 251 251 251 251 251 252 253
286 287 288 287 285 285 283 280 279 276 274 272 269 269 268 268 268 267 268 268 267 266 264 262 261 261 259 259 259 258 255 253 251 250 250 250 251 251 252 251 251 251 252
289 290 290 289 288 287 286 284 281 279 277 275 272 271 269 268 269 269 269 268 266 263 261 259 258 257 257 257 258 258 258 257 255 253 251 249 249 250 251 252 252 252 253
294 294 294 293 292 291 289 288 287 285 283 281 279 277 275 273 271 269 269 267 264 261 259 257 255 254 253 253 254 256 257 257 257 257 256 255 254 253 253 253 254 254 254
299 300 300 300 300 299 297 296 294 293 292 290 288 286 283 280 277 274 270 267 265 262 259 257 254 252 251 249 249 251 252 253 254 256 256 256 256 255 255 256 256 257 256
304 305 306 306 304 302 301 301 300 300 300 299 298 296 294 291 287 283 278 274 270 267 263 259 256 253 251 250 248 248 248 249 251 253 254 255 256 256 257 257 258 259 258
307 308 309 309 307 304 303 303 303 303 303 303 302 300 298 295 292 288 285 281 276 272 268 264 261 257 254 253 252 250 250 250 250 251 252 253 255 256 257 257 257 258 258
308 311 313 314 314 312 312 311 309 308 308 307 306 304 301 297 293 290 287 283 279 275 272 268 265 262 259 257 256 255 254 253 252 252 252 253 254 255 256 256 257 257 258
311 315 319 321 321 321 320 319 317 315 313 312 310 308 305 302 298 295 291 288 284 280 275 271 267 264 261 259 258 257 256 256 256 256 256 256 256 256 256 257 257 257 257
314 319 323 324 324 324 324 324 322 321 319 316 314 311 308 305 302 299 296 292 289 285 281 276 271 267 263 261 259 257 257 257 257 258 258 259 258 258 258 257 257 257 256
315 320 323 324 325 325 326 327 326 324 322 321 318 315 313 311 308 304 301 297 294 291 287 282 276 271 267 264 261 259 257 257 257 257 257 257 258 258 257 257 257 256 256
315 320 323 325 326 327 327 328 328 328 327 325 324 322 319 317 314 311 308 305 301 298 294 289 283 277 272 268 264 261 259 258 257 257 257 258 258 258 257 257 256 256 255